Location: Bakhuizen
(52.8696°N, 5.4575°E)
Time: 09:17:31
(UTC+00:00)

Meteor 1-18 Rocket - Pass Details

Date: 11 May 2021
Orbit: 836 x 909 km, 81.2° (Epoch: 15 June)

Event Time Altitude Azimuth Distance (km) Brightness Sun altitude
Exits shadow 23:16:14 27° 211° (SSW) 1,590 5.2 -18.9°
Maximum altitude 23:19:22 66° 286° (WNW) 929 4.4 -18.9°
Drops below altitude 10° 23:24:56 10° 9° (N) 2,472 7.8 -19.0°
Sets 23:27:22 0° 13° (NNE) 3,407 8.8 -19.0°
